Flight Information

DEPARTURE
SAN DIEGO, CA
Elevation:
16
Runways:
9/27 - 9400x200 - ASPH-CONC-E
Active PE Departure:
27
Current PE ATIS:
O
Altimeter:
30.17
Remarks:
V F R DEPARTURES CONTACT CLEARANCE DELIVERY, ADVISE ON COURSE HEADING, ALTITUDE, AND IF FLIGHT FOLLOWING IS REQUESTED.
ATIS:
134.8 619-298-0997
Clearance Delivery:
125.9
Ground:
123.9
Tower:
LINDBERGH TOWER 118.3
DESTINATION
,
Elevation:
TPA:
1000 (est.)


6756 NM74° True-13° Var61° HDG

Flight Plan:
(click to file on line)

1. Type
2. Aircraft Identification
3. Aircraft Type / Special Equipment
4. True Airspeed
kts
5. Departure Airport
(ICAO code)
6. Arriving Airport
(ICAO code)
7. Cruising Altitude
ft
8. Alternate Airport
(ICAO code)
9. Route of Flight
10. Remarks


00:00:00 Departure ATIS: Destination ATIS:

Clearance Limit:
Route:
Altitude: Expect in minutes
Frequency:
Transponder: (7500 Hijack / 7600 Lost Comms / 7700 Emergency)


KSAN 282251Z 27006KT 10SM SCT190 BKN250 21/M03 A3017 RMK AO2 SLP217 T02111033
Time: 2022-01-28T22:51:00Z
1643411484
Winds: 270 @ 6 kts
Visibility: 10.0 sm
Clouds (AGL): SCT 19000
BKN 25000
Temperature: 21.1 C
Dew Point: -3.3 C
Pressure: 30.171259 in Hgbr


Notes:

Data extracted from FAA Digital Chart Supplement. Effective: 0901Z Thursday, DEC 2, 2021 to 0901Z Thursday, JAN 27, 2022
Current ATIS data is provided courtisy of PilotEdge.